TimeCDT,TemperatureF,Dew PointF,Humidity,Sea Level PressureIn,VisibilityMPH,Wind Direction,Wind SpeedMPH,Gust SpeedMPH,PrecipitationIn,Events,Conditions,WindDirDegrees,DateUTC
12:13 AM,71.6,59.0,64,29.92,10.0,SE,11.5,-,N/A,,Scattered Clouds,130,2013-06-20 05:13:00
12:33 AM,71.6,59.0,64,29.94,10.0,SE,9.2,-,N/A,,Scattered Clouds,130,2013-06-20 05:33:00
12:54 AM,69.8,59.0,68,29.93,10.0,SE,8.1,-,N/A,,Clear,130,2013-06-20 05:54:00
1:13 AM,69.8,60.8,73,29.93,10.0,SE,6.9,-,N/A,,Clear,140,2013-06-20 06:13:00
1:33 AM,69.8,60.8,73,29.94,10.0,ESE,5.8,-,N/A,,Clear,120,2013-06-20 06:33:00
1:54 AM,68.0,60.8,78,29.94,10.0,ESE,5.8,-,N/A,,Clear,120,2013-06-20 06:54:00
2:13 AM,66.2,60.8,83,29.94,10.0,ESE,5.8,-,N/A,,Clear,120,2013-06-20 07:13:00
2:33 AM,66.2,60.8,83,29.94,10.0,ESE,6.9,-,N/A,,Clear,120,2013-06-20 07:33:00
2:54 AM,69.8,60.8,73,29.94,10.0,SE,8.1,-,N/A,,Clear,130,2013-06-20 07:54:00
3:13 AM,69.8,62.6,78,29.94,10.0,SE,9.2,-,N/A,,Clear,140,2013-06-20 08:13:00
3:33 AM,71.6,62.6,73,29.94,10.0,SE,9.2,-,N/A,,Scattered Clouds,140,2013-06-20 08:33:00
3:54 AM,71.6,62.6,73,29.94,10.0,South,8.1,-,N/A,,Scattered Clouds,170,2013-06-20 08:54:00
4:13 AM,71.6,62.6,73,29.93,10.0,SSE,11.5,-,N/A,Rain,Light Rain,160,2013-06-20 09:13:00
4:33 AM,69.8,64.4,83,29.91,10.0,SSE,15.0,19.6,N/A,Rain,Light Rain,160,2013-06-20 09:33:00
4:53 AM,69.8,64.4,83,29.91,10.0,South,13.8,-,N/A,Rain,Light Rain,170,2013-06-20 09:53:00
5:13 AM,69.8,64.4,83,29.92,10.0,SSE,12.7,17.3,N/A,,Scattered Clouds,160,2013-06-20 10:13:00
5:33 AM,71.6,64.4,78,29.92,10.0,SSE,12.7,-,N/A,Thunderstorm,Scattered Clouds,160,2013-06-20 10:33:00
5:53 AM,71.6,62.6,73,29.92,10.0,SSE,12.7,-,N/A,,Scattered Clouds,160,2013-06-20 10:53:00
6:13 AM,69.8,62.6,78,29.94,10.0,SSE,9.2,-,N/A,,Scattered Clouds,160,2013-06-20 11:13:00
6:33 AM,71.6,64.4,78,29.94,10.0,SSE,10.4,-,N/A,,Mostly Cloudy,160,2013-06-20 11:33:00
6:53 AM,69.8,62.6,78,29.94,10.0,SSE,10.4,-,N/A,Rain,Light Rain,160,2013-06-20 11:53:00
7:13 AM,69.8,64.4,83,29.96,10.0,South,6.9,-,N/A,Rain,Light Rain,170,2013-06-20 12:13:00
7:34 AM,69.8,64.4,83,29.97,10.0,Calm,Calm,-,N/A,Rain,Light Rain,0,2013-06-20 12:34:00
7:53 AM,69.8,64.4,83,29.98,10.0,SW,3.5,-,N/A,Rain,Light Rain,220,2013-06-20 12:53:00
8:13 AM,69.8,64.4,83,29.98,10.0,Calm,Calm,-,N/A,Rain,Light Rain,0,2013-06-20 13:13:00
8:34 AM,68.0,64.4,88,29.98,10.0,Calm,Calm,-,N/A,Rain,Light Rain,0,2013-06-20 13:34:00
8:53 AM,68.0,64.4,88,29.98,10.0,SE,3.5,-,N/A,Rain,Light Rain,130,2013-06-20 13:53:00
9:13 AM,69.8,64.4,83,30.00,10.0,Calm,Calm,-,N/A,,Scattered Clouds,0,2013-06-20 14:13:00
9:34 AM,69.8,64.4,83,30.01,5.0,Calm,Calm,-,0.02,Rain-Thunderstorm,Thunderstorms and Rain,0,2013-06-20 14:34:00
9:53 AM,68.0,66.2,94,30.00,10.0,North,3.5,-,0.04,Rain,Light Rain,360,2013-06-20 14:53:00
10:13 AM,68.0,66.2,94,30.00,7.0,Calm,Calm,-,0.02,Rain,Light Rain,0,2013-06-20 15:13:00
10:34 AM,68.0,66.2,94,30.00,7.0,East,3.5,-,0.04,Rain-Thunderstorm,Thunderstorms and Rain,80,2013-06-20 15:34:00
10:53 AM,68.0,66.2,94,29.98,10.0,SE,11.5,-,0.09,Rain,Light Rain,140,2013-06-20 15:53:00
11:13 AM,66.2,64.4,94,29.91,10.0,SE,12.7,-,0.02,Rain,Light Rain,130,2013-06-20 16:13:00
11:34 AM,68.0,66.2,94,29.86,10.0,SSE,26.5,32.2,0.02,,Clear,150,2013-06-20 16:34:00
11:53 AM,69.8,66.2,88,29.85,10.0,SE,16.1,38.0,0.02,,Clear,140,2013-06-20 16:53:00
12:13 PM,71.6,66.2,83,29.90,10.0,East,4.6,-,N/A,,Clear,100,2013-06-20 17:13:00
12:34 PM,75.2,68.0,78,29.91,10.0,SSE,10.4,16.1,N/A,,Clear,160,2013-06-20 17:34:00
12:53 PM,77.0,68.0,74,29.90,10.0,SSE,18.4,-,N/A,,Clear,160,2013-06-20 17:53:00
1:13 PM,78.8,68.0,69,29.92,10.0,SSE,17.3,21.9,N/A,,Clear,150,2013-06-20 18:13:00
1:34 PM,80.6,68.0,65,29.93,10.0,SSE,11.5,-,N/A,,Clear,150,2013-06-20 18:34:00
1:53 PM,80.6,66.2,61,29.94,10.0,SSE,15.0,21.9,N/A,,Clear,160,2013-06-20 18:53:00
2:13 PM,82.4,66.2,58,29.94,10.0,South,11.5,18.4,N/A,,Clear,170,2013-06-20 19:13:00
2:34 PM,82.4,66.2,58,29.93,10.0,SSE,13.8,-,N/A,,Clear,160,2013-06-20 19:34:00
2:53 PM,82.4,66.2,58,29.92,10.0,South,12.7,-,N/A,,Scattered Clouds,170,2013-06-20 19:53:00
3:13 PM,82.4,68.0,62,29.91,10.0,SSE,10.4,-,N/A,,Scattered Clouds,150,2013-06-20 20:13:00
3:34 PM,84.2,64.4,51,29.91,10.0,South,17.3,20.7,N/A,,Scattered Clouds,170,2013-06-20 20:34:00
3:53 PM,86.0,66.2,51,29.90,10.0,SSE,13.8,19.6,N/A,,Clear,160,2013-06-20 20:53:00
4:13 PM,84.2,66.2,55,29.90,10.0,SSE,16.1,21.9,N/A,,Scattered Clouds,150,2013-06-20 21:13:00
4:34 PM,86.0,66.2,51,29.90,10.0,SSE,13.8,19.6,N/A,,Clear,150,2013-06-20 21:34:00
4:53 PM,86.0,66.2,51,29.90,10.0,SSE,15.0,18.4,N/A,,Clear,160,2013-06-20 21:53:00
5:13 PM,84.2,66.2,55,29.90,10.0,SE,13.8,18.4,N/A,,Scattered Clouds,140,2013-06-20 22:13:00
5:34 PM,84.2,66.2,55,29.89,10.0,SSE,9.2,-,N/A,,Scattered Clouds,150,2013-06-20 22:34:00
5:53 PM,84.2,66.2,55,29.89,10.0,SSE,11.5,-,N/A,,Scattered Clouds,150,2013-06-20 22:53:00
6:13 PM,82.4,66.2,58,29.88,10.0,SE,9.2,-,N/A,,Scattered Clouds,140,2013-06-20 23:13:00
6:33 PM,82.4,66.2,58,29.88,10.0,SE,9.2,-,N/A,,Mostly Cloudy,130,2013-06-20 23:33:00
6:53 PM,82.4,68.0,62,29.88,10.0,ESE,8.1,-,N/A,,Mostly Cloudy,120,2013-06-20 23:53:00
7:13 PM,82.4,68.0,62,29.87,10.0,ESE,9.2,-,N/A,,Mostly Cloudy,120,2013-06-21 00:13:00
7:33 PM,82.4,66.2,58,29.87,10.0,ESE,10.4,-,N/A,,Scattered Clouds,110,2013-06-21 00:33:00
7:53 PM,80.6,66.2,61,29.86,10.0,ESE,10.4,-,N/A,,Clear,110,2013-06-21 00:53:00
8:14 PM,80.6,66.2,61,29.86,10.0,ESE,9.2,-,N/A,,Mostly Cloudy,110,2013-06-21 01:14:00
8:33 PM,80.6,66.2,61,29.86,10.0,East,10.4,-,N/A,Thunderstorm,Mostly Cloudy,90,2013-06-21 01:33:00
8:53 PM,80.6,66.2,61,29.85,10.0,ESE,9.2,-,N/A,,Mostly Cloudy,110,2013-06-21 01:53:00
9:14 PM,75.2,68.0,78,29.86,10.0,NE,6.9,-,N/A,Thunderstorm,Thunderstorm,40,2013-06-21 02:14:00
9:33 PM,73.4,68.0,83,29.85,10.0,North,16.1,-,N/A,,Overcast,350,2013-06-21 02:33:00
9:53 PM,71.6,68.0,88,29.85,10.0,NE,13.8,18.4,N/A,Thunderstorm,Overcast,40,2013-06-21 02:53:00
10:14 PM,73.4,68.0,83,29.86,10.0,NE,18.4,25.3,N/A,Thunderstorm,Overcast,50,2013-06-21 03:14:00
10:33 PM,69.8,68.0,94,29.85,10.0,ENE,21.9,26.5,0.02,Rain-Thunderstorm,Light Thunderstorms and Rain,70,2013-06-21 03:33:00
10:53 PM,69.8,68.0,94,29.84,10.0,ENE,20.7,28.8,0.07,Rain-Thunderstorm,Light Thunderstorms and Rain,60,2013-06-21 03:53:00
11:14 PM,69.8,68.0,94,29.84,7.0,NE,17.3,24.2,0.02,Rain-Thunderstorm,Thunderstorms and Rain,50,2013-06-21 04:14:00
11:33 PM,69.8,66.2,88,29.83,10.0,NE,19.6,24.2,0.17,Rain-Thunderstorm,Thunderstorms and Rain,50,2013-06-21 04:33:00
11:52 PM,69.8,66.2,88,29.84,5.0,NNE,17.3,-,0.48,Rain-Thunderstorm,Heavy Thunderstorms and Rain,20,2013-06-21 04:52:00